Flag for Germany Weather past 2 weeks in Oberursel (Taunus), Hesse, Germany

Now
36 °F

Scattered clouds.


Feels Like: 31 °F
Forecast: 30 / 37 °F
Wind: 6 mph from Southwest

Location: Frankfurt / M-Flughafen

Current Time: Feb 1, 2015 at 1:28:48 PM

Latest Report: Feb 1, 2015 at 1:00 PM


Visibility: 16 mi

Pressure: 29.29 "Hg

Humidity: 84%

Dew point: 32 °F

Location of Oberursel (Taunus)Location

Historic Weather in Oberursel (Taunus) — Graph

°F

Oberursel (Taunus) temperature yesterday

Maximum temperature yesterday: 39 °F (at 2:00 PM)
Minimum temperature yesterday: 32 °F (at 12:00 AM)
Average temperature yesterday: 35 °F

Past Weeks' High & Low Weather Summary

 TemperatureHumidityPressure
High42 °F (Jan 17, 2:00 PM)100% (Jan 18, 8:00 AM)30.45 "Hg (Jan 18, 8:00 AM)
Low24 °F (Jan 24, 3:00 AM)66% (Jan 31, 1:00 PM)28.70 "Hg (Jan 30, 3:00 AM)
Average34 °F89%29.85 "Hg
* Reported Jan 17 12:00 Noon — Feb 1 12:00 Noon, Oberursel (Taunus), Weather by CustomWeather, © 2014

Note: Actual official high and low records may vary slightly from our data, if they occured in-between our weather recording intervals... More about our weather records

Advertising

Oberursel (Taunus) weather history for previous 24 hours

 ConditionsComfort  
Time TempWeatherWind HumidityBarometerVisibility
12:00 PM
Feb 1
35 °FPassing clouds.5 mph86%29.29 "Hg9 mi
11:00 AM33 °FPartly sunny.5 mph93%29.26 "Hg7 mi
9:00 AM33 °FLow clouds.3 mph99%29.23 "Hg5 mi
8:00 AM33 °FLow clouds.3 mph98%29.21 "Hg4 mi
7:00 AM32 °FLow clouds.1 mph99%29.18 "Hg4 mi
6:00 AM32 °FLow clouds.1 mph100%29.18 "Hg5 mi
5:00 AM32 °FLight snow. Low clouds.1 mph99%29.15 "Hg3 mi
3:00 AM32 °FLight snow. Low clouds.1 mph100%29.15 "Hg2 mi
2:00 AM32 °FSnow. Low clouds.1 mph99%29.15 "Hg1 mi
1:00 AM32 °FLight snow. Low clouds.2 mph100%29.15 "Hg3 mi
12:00 AM32 °FLight snow. Overcast.1 mph99%29.15 "Hg7 mi
11:00 PM
Jan 31
33 °FPassing clouds.3 mph100%29.15 "Hg5 mi
9:00 PM34 °FFog.2 mph99%29.15 "Hg4 mi
8:00 PM33 °FLow clouds.1 mph99%29.15 "Hg4 mi
7:00 PM33 °FLight snow. Low clouds.2 mph99%29.12 "Hg3 mi
6:00 PM34 °FLight rain. Low clouds.2 mph97%29.12 "Hg4 mi
5:00 PM36 °FSprinkles. Overcast.3 mph93%29.09 "Hg7 mi
4:00 PM38 °FOvercast.6 mph80%29.06 "Hg12 mi
3:00 PM39 °FPartly sunny.6 mph73%29.06 "Hg25 mi
2:00 PM39 °FPartly sunny.7 mph68%29.06 "Hg25 mi
1:00 PM38 °FPartly sunny.6 mph66%29.06 "Hg19 mi
Weather by CustomWeather, © 2014

See weather overviewHow to use our weather pages